Weather History for Haines, AK

Change the Weather History Date:

Monday, January 30, 2012

  Actual Average Record
Temperature  
Mean Temperature 18 °F -  
Max Temperature 21 °F 28 °F 46 °F (1983)
Min Temperature 14 °F 20 °F -10 °F (1989)
Degree Days  
Heating Degree Days 48    
Moisture  
Dew Point 16 °F    
Average Humidity 88    
Maximum Humidity 93    
Minimum Humidity 79    
Precipitation  
Precipitation 0.24 in - - ()
Sea Level Pressure  
Sea Level Pressure 29.32 in    
Wind  
Wind Speed 12 mph (WNW)    
Max Wind Speed 17 mph    
Max Gust Speed -    
Visibility 2 miles    
Events Fog , Snow    
Averages and records for this station are not official NWS values.
T = Trace of Precipitation, MM = Missing Value Source: NWS Daily Summary

Daily Weather History Graph

Daily Weather History Graph

Search for Another Location

Airport:

Trip Planner

Search our weather history database for the weather conditions in past years. The results will help you decide how hot, cold, wet, or windy it might be!

Date:

Astronomy

Jan. 30, 2012 Rise Set
Actual Time 8:16 AM AKST 4:14 PM AKST
Civil Twilight 7:30 AM AKST 5:01 PM AKST
Nautical Twilight 6:40 AM AKST 5:51 PM AKST
Astronomical Twilight 5:52 AM AKST 6:38 PM AKST
Moon 9:37 AM AKST (1/30) 1:07 AM AKST (1/30)
Length of Visible Light 9h 30m
Length of Day
7h 57m
Waxing Crescent, 47% of the Moon is Illuminated
Jan 30
Waxing Crescent
Jan 30
First Quarter
Feb 7
Full
Feb 14
Last Quarter
Feb 21
New

Hourly Weather History & Observations

Time (AKST) Temp. Windchill Dew Point Humidity Pressure Visibility Wind Dir Wind Speed Gust Speed Precip Events Conditions
12:11 AM 15.8 °F 3.4 °F 12.2 °F 86% 29.35 in 1.8 mi WNW 10.4 mph - 0.00 in Snow Light Snow
12:54 AM 16.0 °F 2.9 °F 12.9 °F 88% 29.37 in 2.5 mi WNW 11.5 mph - 0.00 in Snow Light Snow
1:05 AM 15.8 °F 2.7 °F 12.2 °F 86% 29.36 in 1.8 mi WNW 11.5 mph - 0.00 in Snow Light Snow
1:16 AM 15.8 °F 3.4 °F 12.2 °F 86% 29.36 in 2.5 mi WNW 10.4 mph - 0.00 in Snow Light Snow
1:29 AM 15.8 °F 3.4 °F 12.2 °F 86% 29.37 in 3.0 mi WNW 10.4 mph - 0.00 in Snow Light Snow
1:49 AM 15.8 °F 3.4 °F 12.2 °F 86% 29.37 in 5.0 mi WNW 10.4 mph - 0.00 in Snow Light Snow
1:54 AM 15.1 °F 1.1 °F 12.0 °F 88% 29.38 in 6.0 mi WNW 12.7 mph - 0.00 in Snow Light Snow
2:54 AM 15.1 °F 0.5 °F 12.0 °F 88% 29.39 in 10.0 mi WNW 13.8 mph - 0.00 in   Overcast
3:54 AM 15.1 °F 0.5 °F 12.0 °F 88% 29.40 in 10.0 mi West 13.8 mph - 0.00 in   Overcast
4:54 AM 14.0 °F -2.0 °F 10.9 °F 88% 29.39 in 8.0 mi WNW 16.1 mph - 0.00 in Snow Light Snow
5:54 AM 15.1 °F -1.1 °F 10.9 °F 84% 29.40 in 8.0 mi WNW 17.3 mph - 0.00 in Snow Light Snow
6:54 AM 16.0 °F 0.1 °F 10.9 °F 81% 29.40 in 10.0 mi WNW 17.3 mph - 0.00 in   Overcast
7:54 AM 14.0 °F -2.5 °F 10.9 °F 88% 29.40 in 6.0 mi WNW 17.3 mph - 0.00 in Snow Light Snow
8:35 AM 17.6 °F 2.7 °F 12.2 °F 79% 29.39 in 2.5 mi WNW 16.1 mph - 0.00 in Snow Light Snow
8:44 AM 15.8 °F 0.9 °F 10.4 °F 79% 29.39 in 5.0 mi WNW 15.0 mph - 0.00 in Snow Light Snow
8:54 AM 15.1 °F 1.1 °F 10.9 °F 84% 29.40 in 5.0 mi West 12.7 mph - 0.00 in Snow Light Snow
9:54 AM 17.1 °F 1.5 °F 12.0 °F 81% 29.39 in 4.0 mi WNW 17.3 mph - 0.00 in Snow Light Snow
10:54 AM 17.1 °F 2.5 °F 12.9 °F 84% 29.38 in 4.0 mi WNW 15.0 mph - 0.00 in Snow Light Snow
11:54 AM 18.0 °F 2.6 °F 14.0 °F 84% 29.36 in 4.0 mi WNW 17.3 mph - 0.00 in Snow Light Snow
12:54 PM 19.0 °F 5.0 °F 15.1 °F 85% 29.34 in 2.5 mi WNW 15.0 mph - 0.00 in Snow Light Snow
1:09 PM 19.4 °F 6.6 °F 15.8 °F 86% 29.32 in 1.5 mi WNW 12.7 mph - 0.00 in Snow Light Snow
1:25 PM 19.4 °F 5.0 °F 15.8 °F 86% 29.32 in 0.8 mi WNW 16.1 mph - 0.00 in Snow Light Snow
1:37 PM 19.4 °F 5.5 °F 15.8 °F 86% 29.31 in 0.5 mi WNW 15.0 mph - 0.00 in Fog , Snow Snow
1:46 PM 19.4 °F 6.0 °F 15.8 °F 86% 29.31 in 1.0 mi WNW 13.8 mph - 0.01 in Snow Light Snow
1:54 PM 19.0 °F 5.0 °F 16.0 °F 88% 29.32 in 1.2 mi WNW 15.0 mph - 0.01 in Snow Light Snow
2:08 PM 19.4 °F 5.0 °F 15.8 °F 86% 29.30 in 1.5 mi WNW 16.1 mph - 0.00 in Snow Light Snow
2:18 PM 19.4 °F 5.0 °F 15.8 °F 86% 29.30 in 2.0 mi WNW 16.1 mph - 0.00 in Snow Light Snow
2:26 PM 19.4 °F 4.5 °F 15.8 °F 86% 29.30 in 1.5 mi WNW 17.3 mph - 0.00 in Snow Light Snow
2:42 PM 19.4 °F 5.0 °F 15.8 °F 86% 29.29 in 1.0 mi WNW 16.1 mph - 0.00 in Snow Light Snow
2:54 PM 19.9 °F 5.7 °F 16.0 °F 85% 29.30 in 1.5 mi WNW 16.1 mph - 0.00 in Snow Light Snow
3:13 PM 19.4 °F 5.0 °F 17.6 °F 93% 29.29 in 1.0 mi WNW 16.1 mph - 0.00 in Snow Light Snow
3:29 PM 21.2 °F 8.3 °F 17.6 °F 86% 29.29 in 0.8 mi WNW 13.8 mph - 0.00 in Snow Light Snow
3:46 PM 21.2 °F 7.8 °F 17.6 °F 86% 29.29 in 1.0 mi WNW 15.0 mph - 0.00 in Snow Light Snow
3:54 PM 21.0 °F 8.1 °F 18.0 °F 88% 29.30 in 0.5 mi WNW 13.8 mph - 0.00 in Fog , Snow Snow
4:32 PM 21.2 °F 8.9 °F 19.4 °F 93% 29.29 in 0.5 mi WNW 12.7 mph - 0.01 in Fog , Snow Snow
4:54 PM 21.9 °F 9.8 °F 19.0 °F 89% 29.29 in 0.8 mi WNW 12.7 mph - 0.01 in Snow Light Snow
5:06 PM 19.4 °F 7.2 °F 17.6 °F 93% 29.28 in 1.0 mi WNW 11.5 mph - 0.01 in Snow Light Snow
5:15 PM 21.2 °F 9.5 °F 19.4 °F 93% 29.28 in 0.8 mi WNW 11.5 mph - 0.01 in Snow Light Snow
5:27 PM 19.4 °F 7.9 °F 17.6 °F 93% 29.28 in 1.0 mi WNW 10.4 mph - 0.01 in Snow Light Snow
5:31 PM 19.4 °F 7.9 °F 17.6 °F 93% 29.28 in 0.8 mi WNW 10.4 mph - 0.02 in Snow Light Snow
5:38 PM 19.4 °F 8.6 °F 17.6 °F 93% 29.28 in 0.5 mi WNW 9.2 mph - 0.02 in Fog , Snow Snow
5:54 PM 19.9 °F 8.6 °F 18.0 °F 92% 29.29 in 0.5 mi WNW 10.4 mph - 0.03 in Fog , Snow Snow
6:54 PM 19.9 °F 10.1 °F 18.0 °F 92% 29.29 in 0.8 mi WNW 8.1 mph - 0.04 in Snow Light Snow
7:27 PM 19.4 °F - 17.6 °F 93% 29.28 in 1.0 mi Calm Calm - 0.02 in Snow Light Snow
7:50 PM 21.2 °F 13.6 °F 19.4 °F 93% 29.28 in 0.8 mi WNW 5.8 mph - 0.04 in Snow Light Snow
7:51 PM 21.0 °F 13.4 °F 19.0 °F 92% 29.29 in 0.8 mi NW 5.8 mph - 0.04 in Snow Light Snow
8:10 PM 21.2 °F 14.9 °F 19.4 °F 93% 29.28 in 1.0 mi WNW 4.6 mph - 0.01 in Snow Light Snow
8:54 PM 19.9 °F 9.3 °F 18.0 °F 92% 29.29 in 1.0 mi WNW 9.2 mph - 0.03 in Snow Light Snow
9:54 PM 21.0 °F 13.4 °F 19.0 °F 92% 29.28 in 1.0 mi WNW 5.8 mph - 0.02 in Snow Light Snow
10:36 PM 21.2 °F 13.6 °F 19.4 °F 93% 29.27 in 1.5 mi NW 5.8 mph - 0.02 in Snow Light Snow
10:54 PM 21.0 °F 11.4 °F 19.0 °F 92% 29.28 in 1.5 mi NNW 8.1 mph - 0.02 in Snow Light Snow
11:24 PM 21.2 °F 10.1 °F 17.6 °F 86% 29.27 in 0.8 mi West 10.4 mph - 0.02 in Snow Light Snow
11:39 PM 21.2 °F 10.1 °F 19.4 °F 93% 29.26 in 1.0 mi WNW 10.4 mph - 0.03 in Snow Light Snow
11:49 PM 21.2 °F 13.6 °F 19.4 °F 93% 29.27 in 0.8 mi WNW 5.8 mph - 0.03 in Snow Light Snow
11:54 PM 21.0 °F 10.6 °F 19.0 °F 92% 29.28 in 0.8 mi NW 9.2 mph - 0.04 in Snow Light Snow